Location: Deerlick Astronomy Village
(33.5614°N, 82.7631°W)
Time: 23:29:26
(UTC-04:00)

Iridium 66 - Visible Passes

Search period start: 27 July 2015 00:00
Search period end: 06 August 2015 00:00
Orbit: 776 x 779 km, 86.4° (Epoch: 27 July)

Date Brightness Start Highest point End Pass type
(mag) Time Alt. Az. Time Alt. Az. Time Alt. Az.
27 Jul 7.5 02:38:07 10° NNE 02:41:21 32° NE 02:41:21 32° NE visible
27 Jul 8.0 04:20:08 10° NW 04:21:49 15° WNW 04:21:49 15° WNW visible
28 Jul 8.2 02:05:21 10° NNE 02:07:41 19° NE 02:07:41 19° NE visible
28 Jul 7.6 03:45:31 10° NNW 03:48:09 25° NW 03:48:09 25° NW visible
29 Jul 8.8 01:33:57 10° ENE 01:34:02 10° ENE 01:34:02 10° ENE visible
29 Jul 7.4 03:11:34 10° N 03:14:29 33° NNW 03:14:29 33° NNW visible
30 Jul 7.6 02:38:02 10° N 02:40:50 32° NNE 02:40:50 32° NNE visible
31 Jul 8.1 02:04:56 10° NNE 02:07:12 22° NE 02:07:12 22° NE visible
31 Jul 8.1 03:46:09 10° NW 03:47:39 16° NW 03:47:39 16° NW visible
01 Aug 8.6 01:32:29 10° NE 01:33:34 13° NE 01:33:34 13° NE visible
01 Aug 7.8 03:11:52 10° NNW 03:14:02 23° NNW 03:14:02 23° NNW visible
02 Aug 7.8 02:38:06 10° N 02:40:25 27° N 02:40:25 27° N visible
03 Aug 8.1 02:04:44 10° N 02:06:48 23° NNE 02:06:48 23° NNE visible
03 Aug 8.5 03:47:13 10° NW 03:47:14 10° NW 03:47:14 10° NW visible
04 Aug 8.5 01:31:49 10° NNE 01:33:12 16° NE 01:33:12 16° NE visible
04 Aug 8.3 03:12:22 10° NNW 03:13:39 16° NW 03:13:39 16° NW visible
05 Aug 8.1 02:38:19 10° NNW 02:40:03 21° NNW 02:40:03 21° NNW visible
